Date String (YYYY-MM-DD hh:mm:ss) UTC,Instrument flags,Ambient pressure (hPa),Sample flow (lpm),Bypass flow (lpm),Sample temperature (°C),Ambient temperature (°C),ASC tube jacket temperature (°C),LED temperature (°C),Box temperature (°C),Sample RH (%),Span deviation,Mass concentration (μg/m³),Mass concentration (μg/m³),Mass concentration (μg/m³)
DateTimeUTC,F1_M11,P_M11,Q1_M11,Q2_M11,T1_M11,T2_M11,T3_M11,T4_M11,T5_M11,U1_M11,ZSPAN_M11,X2_M11,X0_M11,X1_M11
2021-12-04 17:00:00,,0826.9,4.99,0.00,24.9,24.2,00.0,33.8,26.8,16.2,0000.0,0003.95,0012.21,0002.87
2021-12-04 17:01:00,,0826.9,5.00,0.00,25.0,24.3,00.0,33.8,26.9,16.1,0000.0,0003.95,0012.09,0002.89
2021-12-04 17:02:00,,0826.9,5.01,0.00,25.0,24.3,00.0,33.8,26.9,16.1,0000.0,0004.03,0011.69,0002.92
2021-12-04 17:03:00,,0826.9,4.99,0.00,25.0,24.3,00.0,33.8,26.9,16.0,0000.0,0004.07,0011.11,0002.95
2021-12-04 17:04:00,,0826.9,5.00,0.00,25.0,24.3,00.0,33.9,26.9,16.1,0000.0,0004.08,0010.84,0003.00
2021-12-04 17:05:00,,0826.9,5.01,0.00,25.0,24.4,00.0,33.9,27.0,16.1,0000.0,0004.08,0010.55,0003.05
2021-12-04 17:06:00,,0826.8,4.99,0.00,25.1,24.4,00.0,33.9,27.0,16.1,0000.0,0004.06,0010.64,0003.08
2021-12-04 17:07:00,,0826.9,5.01,0.00,25.1,24.4,00.0,33.9,27.0,16.1,0000.0,0004.06,0011.16,0003.11
2021-12-04 17:08:00,,0826.9,5.01,0.00,25.1,24.4,00.0,33.9,27.0,16.1,0000.0,0004.10,0011.59,0003.14
2021-12-04 17:09:00,,0826.9,5.01,0.00,25.1,24.4,00.0,34.0,27.0,16.0,0000.0,0004.17,0012.39,0003.17
2021-12-04 17:10:00,,0826.9,4.99,0.00,25.1,24.4,00.0,34.0,27.0,16.0,0000.0,0004.21,0013.22,0003.21
2021-12-04 17:11:00,,0826.9,5.00,0.00,25.1,24.4,00.0,34.0,27.0,16.0,0000.0,0004.23,0013.59,0003.24
2021-12-04 17:12:00,,0826.9,5.00,0.00,25.1,24.4,00.0,34.0,27.0,16.1,0000.0,0004.28,0013.94,0003.28
2021-12-04 17:13:00,,0826.9,5.00,0.00,25.1,24.4,00.0,34.0,27.0,16.0,0000.0,0004.30,0013.72,0003.32
2021-12-04 17:14:00,,0827.0,4.99,0.00,25.1,24.4,00.0,34.0,27.0,16.0,0000.0,0004.36,0013.98,0003.37
2021-12-04 17:15:00,,0827.1,5.02,0.00,25.2,24.4,00.0,34.1,27.1,16.1,0000.0,0004.44,0014.42,0003.42
2021-12-04 17:16:00,,0826.9,5.00,0.00,25.2,24.4,00.0,34.1,27.1,16.1,0000.0,0004.52,0014.87,0003.47
2021-12-04 17:17:00,,0826.9,5.00,0.00,25.2,24.4,00.0,34.1,27.0,16.1,0000.0,0004.66,0015.54,0003.55
2021-12-04 17:18:00,,0826.8,5.01,0.00,25.2,24.4,00.0,34.1,27.0,16.1,0000.0,0004.74,0015.90,0003.61
2021-12-04 17:19:00,,0826.8,4.98,0.00,25.2,24.5,00.0,34.1,27.0,16.1,0000.0,0004.83,0015.72,0003.67
2021-12-04 17:20:00,,0826.8,5.01,0.00,25.2,24.5,00.0,34.1,27.1,16.0,0000.0,0004.89,0015.03,0003.73
2021-12-04 17:21:00,,0826.8,5.00,0.00,25.2,24.5,00.0,34.1,27.1,16.1,0000.0,0004.96,0015.09,0003.77
2021-12-04 17:22:00,,0826.8,5.00,0.00,25.2,24.5,00.0,34.1,27.1,16.1,0000.0,0005.03,0015.60,0003.80
2021-12-04 17:23:00,,0826.8,5.01,0.00,25.2,24.5,00.0,34.1,27.1,16.1,0000.0,0005.09,0016.81,0003.84
2021-12-04 17:24:00,,0826.8,5.00,0.00,25.3,24.5,00.0,34.1,27.1,16.1,0000.0,0005.12,0017.63,0003.86
2021-12-04 17:25:00,,0826.8,5.00,0.00,25.3,24.5,00.0,34.2,27.1,16.0,0000.0,0005.11,0018.43,0003.89
2021-12-04 17:26:00,,0826.8,4.99,0.00,25.3,24.6,00.0,34.2,27.1,16.1,0000.0,0005.11,0018.18,0003.90
2021-12-04 17:27:00,,0826.7,5.00,0.00,25.3,24.6,00.0,34.2,27.2,16.0,0000.0,0005.10,0018.77,0003.92
2021-12-04 17:28:00,,0826.7,5.01,0.00,25.3,24.6,00.0,34.2,27.2,16.0,0000.0,0005.11,0018.77,0003.92
2021-12-04 17:29:00,,0826.7,5.00,0.00,25.3,24.6,00.0,34.2,27.2,15.9,0000.0,0005.07,0017.98,0003.90
2021-12-04 17:30:00,,0826.7,4.99,0.00,25.3,24.6,00.0,34.2,27.2,16.0,0000.0,0005.03,0017.53,0003.90
2021-12-04 17:31:00,,0826.8,5.01,0.00,25.4,24.7,00.0,34.2,27.3,15.8,0000.0,0005.04,0017.86,0003.91
2021-12-04 17:32:00,,0826.7,4.99,0.00,25.4,24.7,00.0,34.3,27.3,15.8,0000.0,0004.99,0017.92,0003.91
2021-12-04 17:33:00,,0826.7,4.99,0.00,25.4,24.7,00.0,34.3,27.3,15.8,0000.0,0004.98,0016.83,0003.91
2021-12-04 17:34:00,,0826.7,5.01,0.00,25.4,24.7,00.0,34.3,27.3,15.8,0000.0,0005.03,0016.44,0003.91
2021-12-04 17:35:00,,0826.7,5.00,0.00,25.5,24.7,00.0,34.3,27.3,15.6,0000.0,0005.01,0015.52,0003.90
2021-12-04 17:36:00,,0826.7,5.00,0.00,25.5,24.8,00.0,34.3,27.3,15.7,0000.0,0005.03,0015.08,0003.90
2021-12-04 17:37:00,,0826.7,4.99,0.00,25.5,24.8,00.0,34.4,27.4,15.9,0000.0,0005.03,0014.67,0003.90
2021-12-04 17:38:00,,0826.7,5.00,0.00,25.5,24.8,00.0,34.4,27.4,15.9,0000.0,0005.05,0014.50,0003.91
2021-12-04 17:39:00,,0826.7,5.00,0.00,25.5,24.8,00.0,34.4,27.4,15.9,0000.0,0005.09,0014.09,0003.92
2021-12-04 17:40:00,,0826.7,5.00,0.00,25.5,24.8,00.0,34.4,27.4,15.8,0000.0,0005.10,0014.26,0003.92
2021-12-04 17:41:00,,0826.6,5.01,0.00,25.5,24.9,00.0,34.4,27.4,15.7,0000.0,0005.11,0014.79,0003.92
2021-12-04 17:42:00,,0826.6,4.99,0.00,25.6,24.9,00.0,34.5,27.5,15.8,0000.0,0005.10,0015.05,0003.92
2021-12-04 17:43:00,,0826.6,5.01,0.00,25.6,24.9,00.0,34.5,27.5,15.8,0000.0,0005.18,0014.92,0003.94
2021-12-04 17:44:00,,0826.5,5.01,0.00,25.6,24.9,00.0,34.5,27.5,15.7,0000.0,0005.25,0015.51,0003.96
2021-12-04 17:45:00,,0826.5,4.99,0.00,25.6,24.9,00.0,34.5,27.5,15.7,0000.0,0005.24,0015.75,0003.98
2021-12-04 17:46:00,,0826.5,5.00,0.00,25.6,25.0,00.0,34.5,27.5,15.8,0000.0,0005.28,0015.81,0004.01
2021-12-04 17:47:00,,0826.5,5.01,0.00,25.7,25.0,00.0,34.5,27.5,15.6,0000.0,0005.28,0015.47,0004.04
2021-12-04 17:48:00,,0826.5,4.99,0.00,25.7,25.0,00.0,34.6,27.6,15.6,0000.0,0005.33,0015.63,0004.06
2021-12-04 17:49:00,,0826.5,4.99,0.00,25.7,25.0,00.0,34.6,27.6,15.5,0000.0,0005.33,0015.57,0004.07
2021-12-04 17:50:00,,0826.6,5.01,0.00,25.7,25.0,00.0,34.6,27.6,15.7,0000.0,0005.30,0014.99,0004.10
2021-12-04 17:51:00,,0826.5,4.99,0.00,25.7,25.1,00.0,34.6,27.6,15.8,0000.0,0005.35,0015.21,0004.15
2021-12-04 17:52:00,,0826.5,5.00,0.00,25.8,25.1,00.0,34.6,27.6,15.6,0000.0,0005.42,0016.08,0004.21
2021-12-04 17:53:00,,0826.5,4.99,0.00,25.8,25.1,00.0,34.7,27.7,15.5,0000.0,0005.47,0016.87,0004.25
2021-12-04 17:54:00,,0826.5,5.00,0.00,25.8,25.1,00.0,34.7,27.7,15.4,0000.0,0005.48,0017.50,0004.25
2021-12-04 17:55:00,,0826.5,5.00,0.00,25.8,25.1,00.0,34.7,27.7,15.5,0000.0,0005.51,0016.90,0004.28
2021-12-04 17:56:00,,0826.5,5.00,0.00,25.8,25.1,00.0,34.7,27.7,15.5,0000.0,0005.59,0016.92,0004.31
2021-12-04 17:57:00,,0826.6,5.00,0.00,25.9,25.1,00.0,34.7,27.7,15.4,0000.0,0005.66,0017.48,0004.34
2021-12-04 17:58:00,,0826.5,5.00,0.00,25.9,25.2,00.0,34.7,27.8,15.5,0000.0,0005.73,0017.64,0004.37
2021-12-04 17:59:00,,0826.5,4.99,0.00,25.9,25.2,00.0,34.8,27.8,15.4,0000.0,0005.79,0018.09,0004.41
